Regional Weather Roundup
Issued by NWS

Home | Current Version | Previous Version | Graphics & Text | Print | Product List | Glossary On
Versions: 1 2 3 4 5 6 7 8 9 10 11 12 13 14 15 16 17 18 19 20 21 22 23 24 25 26 27 28 29 30 31 32 33 34 35 36 37 38 39 40 41 42 43 44 45 46 47 48 49 50
735
ASUS45 KCYS 281010
RWRWY

WYOMING REGIONAL WEATHER ROUNDUP
NATIONAL WEATHER SERVICE CHEYENNE WY
400 AM MDT WED JUN 28 2017

NOTE:  "FAIR" INDICATES FEW OR NO CLOUDS BELOW 12,000 FEET
WITH NO SIGNIFICANT WEATHER AND/OR OBSTRUCTIONS TO VISIBILITY.

WYZ001-281100-
YELLOWSTONE NATIONAL PARK

CITY           SKY/WX    TMP DP  RH WIND       PRES   REMARKS
LK YELLOWSTONE   N/A     37  37 100 NW3       30.07F
W YELLOWSTONE  NOT AVBL

$$
WYZ002>013-054>058-071-098>099-281100-
NORTHERN WYOMING

CITY           SKY/WX    TMP DP  RH WIND       PRES   REMARKS
JACKSON        FAIR      43  41  93 CALM      30.02F
CODY           FAIR      64  39  39 W7G23     29.88F
GREYBULL       FAIR      55  44  66 NE6       29.84S
WORLAND        FAIR      49  43  80 SE6       29.85F
SHERIDAN       FAIR      49  45  86 CALM      29.82F
BUFFALO        FAIR      53  40  61 SW7       29.89S
GILLETTE       FAIR      55  51  86 W12       29.85S
NEWCASTLE      FAIR      54  45  71 N13       29.85S

$$
WYZ014>020-022>026-101>103-281100-
CENTRAL WYOMING

CITY           SKY/WX    TMP DP  RH WIND       PRES   REMARKS
BIG PINEY      FAIR      36  33  89 NW3       30.04S
PINEDALE       FAIR      37  37 100 NW6       30.05S WCI  33
DUBOIS         FAIR      39  36  87 NW6       30.02S WCI  35
LANDER         FAIR      51  39  63 N3        29.94F
RIVERTON       FAIR      50  40  68 NE3       29.93F
CASPER         FAIR      47  41  80 W9        29.93F
DOUGLAS        FAIR      50  42  74 NW5       29.91F

$$
WYZ021-027>030-104>119-281100-
SOUTHERN WYOMING

CITY           SKY/WX    TMP DP  RH WIND       PRES   REMARKS
EVANSTON       FAIR      51  29  42 SE7       30.04F
KEMMERER         N/A     45  34  65 CALM      30.05F
FORT BRIDGER   SUNNY     54  28  37 S9        30.06F
ROCK SPRINGS   FAIR      53  34  48 SE6       30.02S
DIXON          FAIR      46  39  76 CALM      30.05F
RAWLINS        FAIR      41  36  82 NE6       30.03F
SARATOGA       FAIR      45  45 100 SE3       30.05F
LARAMIE        FAIR      48  36  63 NE3       30.05F
CHEYENNE       FAIR      54  39  57 NE7       29.99R
TORRINGTON     FAIR      54  44  69 SE5       29.88R
PINE BLUFFS    FAIR      46  41  81 CALM      29.95S

$$




USA.gov is the U.S. government's official web portal to all federal, state and local government web resources and services.